EW1994 Weather Reports


Display with metric or nautical units.
time (UTC)temp
F
wind
direction
speed
MPH
gust
MPH
rain 1hr
in
rain 24hr
in
rain mn
in
humidity
%
barometer
mb
20260905020019 54 265 0.0 0.0 0.06 0.18 0.18 91 1016.0
20260905014529 55 265 0.0 0.0 0.08 0.17 0.17 90 1016.1
20260905013033 55 265 0.0 0.0 0.14 0.14 0.14 90 1016.0
20260905011531 56 265 0.0 0.0 0.13 0.13 0.13 89 1015.9
20260905010017 56 265 0.0 3.0 0.12 0.12 0.12 86 1015.8
20260905004526 59 292 0.0 3.0 0.09 0.09 0.09 81 1015.9
20260905003028 63 290 0.0 6.0 0.00 0.00 0.00 70 1015.5
20260905001531 66 304 2.0 12.0 0.00 0.00 0.00 66 1015.1
20260905000034 67 107 0.0 0.0 0.00 0.00 0.00 68 1014.3
20260904234534 67 107 0.0 1.0 0.00 0.00 0.00 66 1014.2
20260904233030 67 107 0.0 1.0 0.00 0.00 0.00 66 1014.0
20260904231531 68 107 0.0 0.0 0.00 0.00 0.00 63 1014.0
20260904230033 69 106 1.0 4.0 0.00 0.00 0.00 57 1013.8
20260904224542 69 150 0.0 4.0 0.00 0.00 0.00 62 1013.8
20260904223027 68 123 0.0 3.0 0.00 0.00 0.00 66 1013.7
20260904221527 67 288 0.0 5.0 0.00 0.00 0.00 67 1013.8
20260904220034 68 194 0.0 2.0 0.00 0.00 0.00 68 1013.8
20260904214540 68 183 0.0 5.0 0.00 0.00 0.00 65 1013.8
20260904213037 68 211 0.0 4.0 0.00 0.00 0.00 66 1013.7
20260904211524 65 98 0.0 1.0 0.00 0.00 0.00 71 1013.7
20260904210027 65 98 0.0 2.0 0.00 0.00 0.00 72 1013.7
20260904204532 65 84 0.0 0.0 0.00 0.00 0.00 72 1013.6
20260904203034 66 84 0.0 1.0 0.00 0.00 0.00 67 1013.6
20260904201533 67 182 0.0 4.0 0.00 0.00 0.00 66 1013.6
20260904200029 67 351 0.0 3.0 0.00 0.00 0.00 66 1013.6
20260904194531 68 224 0.0 2.0 0.00 0.00 0.00 66 1013.6
20260904193042 66 61 0.0 2.0 0.00 0.00 0.00 67 1013.8
20260904191534 65 134 1.0 3.0 0.00 0.00 0.00 68 1013.9
20260904190037 63 181 0.0 1.0 0.00 0.00 0.00 73 1014.0
20260904184529 62 180 0.0 2.0 0.00 0.00 0.00 76 1014.2
20260904183016 61 197 0.0 1.0 0.00 0.00 0.00 75 1014.1
20260904181515 62 205 0.0 2.0 0.00 0.00 0.00 73 1013.9
20260904180021 62 188 0.0 2.0 0.00 0.00 0.00 72 1013.9
20260904174530 63 73 1.0 3.0 0.00 0.00 0.00 73 1013.8
20260904173029 62 44 0.0 2.0 0.00 0.00 0.00 75 1013.9
20260904171510 61 79 1.0 4.0 0.00 0.00 0.00 75 1013.8
20260904170019 61 103 0.0 4.0 0.00 0.00 0.00 79 1014.0
20260904164524 60 22 0.0 4.0 0.00 0.00 0.00 82 1014.0
20260904163027 59 124 0.0 2.0 0.00 0.00 0.00 84 1014.1
20260904161508 57 94 0.0 2.0 0.00 0.00 0.00 88 1014.2
20260904160016 55 227 0.0 1.0 0.00 0.00 0.00 91 1014.1
20260904154522 53 300 0.0 0.0 0.00 0.00 0.00 92 1014.0
20260904153026 52 300 0.0 1.0 0.00 0.00 0.00 93 1014.0
20260904151535 52 307 0.0 0.0 0.00 0.00 0.00 93 1013.7
20260904150014 51 307 0.0 0.0 0.00 0.00 0.00 93 1013.5
20260904144517 50 307 0.0 0.0 0.00 0.00 0.00 93 1013.4
20260904143024 50 307 0.0 0.0 0.00 0.00 0.00 93 1013.2
20260904141529 50 307 0.0 0.0 0.00 0.00 0.00 92 1013.1
20260904140030 50 307 0.0 0.0 0.00 0.00 0.00 93 1013.0
20260904134511 50 307 0.0 0.0 0.00 0.00 0.00 92 1012.8
20260904133019 50 307 0.0 0.0 0.00 0.00 0.00 92 1012.7
20260904131525 50 307 0.0 0.0 0.00 0.00 0.00 92 1012.5
20260904130028 50 307 0.0 0.0 0.00 0.00 0.00 92 1012.4
20260904124510 50 307 0.0 0.0 0.00 0.00 0.00 92 1012.3
20260904123016 50 307 0.0 0.0 0.00 0.00 0.00 92 1012.1
20260904121523 50 307 0.0 0.0 0.00 0.00 0.00 92 1012.1
20260904120026 50 307 0.0 0.0 0.00 0.00 0.00 92 1011.9
20260904114527 51 307 0.0 0.0 0.00 0.00 0.00 92 1011.9
20260904113012 51 307 0.0 0.0 0.00 0.00 0.00 92 1011.8
20260904111516 51 307 0.0 0.0 0.00 0.00 0.00 92 1011.6
20260904110031 51 307 0.0 0.0 0.00 0.00 0.00 92 1011.4
20260904104527 51 307 0.0 0.0 0.00 0.00 0.00 92 1011.4
20260904103007 51 307 0.0 0.0 0.00 0.01 0.00 91 1011.5
20260904101518 51 307 0.0 0.0 0.00 0.01 0.00 91 1011.4
20260904100020 52 307 0.0 0.0 0.00 0.01 0.00 91 1011.3
20260904094527 52 307 0.0 0.0 0.00 0.01 0.00 91 1011.2
20260904093029 52 307 0.0 0.0 0.00 0.01 0.00 90 1011.2
20260904091511 53 307 0.0 0.0 0.00 0.01 0.00 90 1011.3
20260904090023 53 307 0.0 0.0 0.00 0.01 0.00 90 1011.3
20260904084523 54 307 0.0 0.0 0.00 0.01 0.00 90 1011.3
20260904083028 54 307 0.0 0.0 0.00 0.01 0.00 89 1011.2
20260904081532 54 307 0.0 0.0 0.00 0.01 0.00 89 1011.4
20260904080014 55 307 0.0 0.0 0.00 0.01 0.00 89 1011.5
20260904074531 55 307 0.0 0.0 0.00 0.01 0.00 89 1011.5
20260904073023 55 307 0.0 0.0 0.00 0.01 0.00 89 1011.5
20260904071535 55 307 0.0 1.0 0.00 0.01 0.00 89 1011.4
20260904070033 55 307 0.0 0.0 0.00 0.01 0.00 88 1011.4
20260904064515 55 307 0.0 2.0 0.00 0.01 0.01 88 1011.3
20260904063037 55 92 0.0 0.0 0.00 0.01 0.01 88 1011.3
20260904061527 55 92 0.0 0.0 0.00 0.01 0.01 88 1011.2
20260904060046 55 92 0.0 0.0 0.00 0.01 0.01 88 1011.1
20260904054531 56 92 0.0 0.0 0.00 0.01 0.01 87 1011.0
20260904053020 56 92 0.0 0.0 0.00 0.01 0.01 87 1011.1
20260904051524 56 92 0.0 0.0 0.00 0.01 0.01 87 1011.1
20260904050029 55 91 0.0 1.0 0.00 0.01 0.01 87 1011.0
20260904044542 55 180 0.0 0.0 0.00 0.01 0.01 88 1011.1
20260904043034 56 180 0.0 0.0 0.00 0.01 0.01 87 1011.0
20260904041520 56 180 0.0 0.0 0.00 0.01 0.01 87 1011.1
20260904040028 56 180 0.0 0.0 0.00 0.01 0.01 86 1011.0
20260904034536 57 180 0.0 0.0 0.00 0.01 0.01 85 1011.0
20260904033038 57 180 0.0 0.0 0.00 0.01 0.01 84 1010.9
20260904031533 58 180 0.0 1.0 0.00 0.01 0.01 81 1010.7
20260904030026 58 180 0.0 1.0 0.00 0.01 0.01 80 1010.6
20260904024530 59 171 0.0 2.0 0.00 0.01 0.01 82 1010.5
20260904023031 59 275 0.0 0.0 0.00 0.01 0.01 82 1010.3
20260904021531 60 275 0.0 1.0 0.00 0.01 0.01 80 1010.4